JST781 YPAD-YMML

Flight info

Callsign JST781
Flight time N/A
Altitude 37000
Route BENDO Y12 ARBEY
Aircraft A320/M-SDE3FGHIRWY/LB1

Departure

Time 2025-09-05 13:37
Airport Adelaide International Airport (YPAD)

Arrival

Time N/A
Airport Melbourne Airport (YMML)
Time Latitude Longitude Altitude Speed Heading
2025-09-05 13:12 -34.93977 138.53773 27 ft 0 kts 320°
2025-09-05 13:26 -34.93981 138.53776 27 ft 2 kts 320°
2025-09-05 13:26 -34.93995 138.53791 27 ft 3 kts 316°
2025-09-05 13:27 -34.94022 138.53828 26 ft 3 kts 301°
2025-09-05 13:28 -34.94029 138.53868 31 ft 0 kts 230°
2025-09-05 13:30 -34.94069 138.53808 27 ft 14 kts 230°
2025-09-05 13:30 -34.94109 138.53750 28 ft 16 kts 229°
2025-09-05 13:30 -34.94217 138.53646 24 ft 9 kts 173°
2025-09-05 13:31 -34.94364 138.53549 24 ft 16 kts 230°
2025-09-05 13:32 -34.94516 138.53255 23 ft 14 kts 276°
2025-09-05 13:32 -34.94448 138.53028 23 ft 14 kts 256°
2025-09-05 13:33 -34.94616 138.52840 21 ft 21 kts 220°
2025-09-05 13:33 -34.94866 138.52606 20 ft 24 kts 218°
2025-09-05 13:34 -34.95134 138.52353 20 ft 22 kts 218°
2025-09-05 13:34 -34.95242 138.52251 22 ft 16 kts 217°
2025-09-05 13:34 -34.95394 138.52217 22 ft 9 kts 148°
2025-09-05 13:35 -34.95415 138.52359 22 ft 21 kts 51°
2025-09-05 13:36 -34.94089 138.54249 547 ft 131 kts 50°
2025-09-05 13:36 -34.93117 138.55663 1517 ft 130 kts 51°
2025-09-05 13:37 -34.92679 138.58384 2216 ft 195 kts 107°
2025-09-05 13:37 -34.94082 138.61724 2845 ft 247 kts 110°
2025-09-05 13:38 -34.95471 138.64991 3905 ft 271 kts 112°
2025-09-05 13:38 -34.96356 138.67067 4737 ft 280 kts 113°
2025-09-05 13:38 -34.98272 138.71618 5788 ft 317 kts 113°
2025-09-05 13:39 -35.00312 138.76490 7366 ft 327 kts 114°
2025-09-05 13:40 -35.03473 138.84116 9612 ft 343 kts 116°
2025-09-05 13:40 -35.05629 138.89352 11051 ft 351 kts 116°
2025-09-05 13:41 -35.07509 138.95089 12159 ft 369 kts 110°
2025-09-05 13:41 -35.09300 139.00999 13454 ft 377 kts 110°
2025-09-05 13:42 -35.11148 139.07084 14660 ft 385 kts 111°
2025-09-05 13:42 -35.12083 139.10166 15228 ft 389 kts 111°
2025-09-05 13:42 -35.13969 139.16398 16351 ft 397 kts 111°
2025-09-05 13:43 -35.15895 139.22792 17468 ft 404 kts 111°
2025-09-05 13:44 -35.18849 139.32631 19064 ft 416 kts 111°
2025-09-05 13:44 -35.20837 139.39287 20112 ft 422 kts 112°
2025-09-05 13:45 -35.22870 139.46088 21121 ft 427 kts 112°
2025-09-05 13:45 -35.24959 139.52954 22105 ft 432 kts 114°
2025-09-05 13:46 -35.27399 139.59673 23044 ft 437 kts 117°
2025-09-05 13:46 -35.28729 139.63071 23523 ft 439 kts 118°
2025-09-05 13:46 -35.31358 139.69831 24321 ft 445 kts 117°
2025-09-05 13:48 -35.41838 139.98223 27039 ft 472 kts 118°
2025-09-05 13:50 -35.52926 140.28456 29680 ft 499 kts 118°
2025-09-05 13:53 -35.65798 140.63979 32782 ft 512 kts 121°
2025-09-05 13:54 -35.75940 140.92253 35135 ft 518 kts 122°
2025-09-05 13:57 -35.88849 141.28635 37308 ft 518 kts 122°
2025-09-05 13:58 -35.98880 141.57184 37322 ft 516 kts 121°
2025-09-05 14:01 -36.11583 141.93758 37345 ft 514 kts 121°
2025-09-05 14:02 -36.21368 142.22187 37361 ft 512 kts 120°
2025-09-05 14:03 -36.25509 142.34290 37371 ft 511 kts 120°